Aurora, CO

7:03 PM MDT on September 28, 2016 (GMT -0600)
Denver International

Weather History for KDEN - May, 2012

Change the Weather History Date:

Saturday, May 19, 2012

  Actual Average Record
Temperature  
Mean Temperature 52 °F 58 °F  
Max Temperature 57 °F 73 °F 90 °F (2009)
Min Temperature 46 °F 44 °F 25 °F (1915)
Degree Days  
Heating Degree Days 13 7  
Month to date heating degree days 132 196  
Since 1 July heating degree days 5347 5927  
Cooling Degree Days 0 1  
Month to date cooling degree days 23 4  
Year to date cooling degree days 29 5  
Growing Degree Days 2 (Base 50)    
Moisture  
Dew Point 42 °F    
Average Humidity 74    
Maximum Humidity 93    
Minimum Humidity 55    
Precipitation  
Precipitation 0.19 in 0.07 in 1.56 in (1988)
Month to date precipitation 0.41 1.26  
Year to date precipitation 2.99 4.67  
Snow  
Snow 0.00 in - - ()
Month to date snowfall  
Since 1 July snowfall  
Snow Depth -    
Sea Level Pressure  
Sea Level Pressure 29.96 in    
Wind  
Wind Speed 10 mph (North)    
Max Wind Speed 21 mph    
Max Gust Speed 24 mph    
Visibility 9 miles    
Events Rain , Thunderstorm    
T = Trace of Precipitation, MM = Missing Value Source: NWS Daily Summary

Daily Weather History Graph

Daily Weather History Graph

Search for Another Location

Airport or City:

Trip Planner

Search our weather history database for the weather conditions in past years. The results will help you decide how hot, cold, wet, or windy it might be!

Date:

Astronomy

May. 19, 2012 Rise Set
Actual Time 5:39 AM MDT 8:10 PM MDT
Civil Twilight 5:08 AM MDT 8:41 PM MDT
Nautical Twilight 4:30 AM MDT 9:20 PM MDT
Astronomical Twilight 3:47 AM MDT 10:03 PM MDT
Moon 4:44 AM MDT (5/19) 7:17 PM MDT (5/19)
Length of Visible Light 15h 33m
Length of Day
14h 31m
Waning Crescent, 1% of the Moon is Illuminated
May 19
Waning Crescent
May 20
New
May 28
First Quarter
Jun 4
Full
Jun 11
Last Quarter

Hourly Weather History & Observations

Time (MDT) Temp. Windchill Dew Point Humidity Pressure Visibility Wind Dir Wind Speed Gust Speed Precip Events Conditions
12:53 AM 55.0 °F - 39.9 °F 57% 29.60 in 10.0 mi North 12.7 mph - N/A   Scattered Clouds
1:53 AM 50.0 °F - 43.0 °F 77% 29.64 in 10.0 mi NNE 6.9 mph - N/A   Scattered Clouds
2:53 AM 48.9 °F - 44.1 °F 83% 29.67 in 10.0 mi North 6.9 mph - N/A   Scattered Clouds
3:53 AM 48.9 °F - 44.1 °F 83% 29.70 in 10.0 mi North 5.8 mph - N/A   Scattered Clouds
4:53 AM 50.0 °F - 44.1 °F 80% 29.73 in 10.0 mi NNW 9.2 mph - N/A   Mostly Cloudy
5:16 AM 50.0 °F - 42.8 °F 76% 29.95 in 5.0 mi NNW 10.4 mph - 0.00 in Rain , Thunderstorm Light Thunderstorms and Rain
5:34 AM 50.0 °F - 44.6 °F 82% 29.95 in 4.0 mi NNE 5.8 mph - 0.00 in Rain Rain
5:53 AM 48.9 °F - 44.1 °F 83% 29.77 in 5.0 mi North 9.2 mph - 0.02 in Rain Light Rain
6:53 AM 48.9 °F - 45.0 °F 86% 29.83 in 6.0 mi NNE 10.4 mph - 0.01 in Rain Rain
7:01 AM 48.2 °F - 44.6 °F 87% 30.00 in 3.0 mi North 13.8 mph - 0.02 in Rain Rain
7:28 AM 46.4 °F 39.8 °F 44.6 °F 93% 30.00 in 10.0 mi NE 16.1 mph - 0.05 in   Overcast
7:53 AM 46.9 °F - 43.0 °F 86% 29.88 in 5.0 mi NNE 12.7 mph - 0.05 in Rain Light Rain
8:11 AM 46.4 °F 39.8 °F 44.6 °F 93% 30.03 in 10.0 mi NNE 16.1 mph - 0.01 in Rain Light Rain
8:21 AM 46.4 °F 40.7 °F 44.6 °F 93% 30.04 in 10.0 mi NNE 12.7 mph - 0.02 in Rain Light Rain
8:53 AM 46.9 °F - 44.1 °F 90% 29.88 in 4.0 mi North 13.8 mph - 0.05 in Rain Rain
9:02 AM 46.4 °F 40.1 °F 44.6 °F 93% 30.06 in 4.0 mi North 15.0 mph 21.9 mph 0.01 in Rain Light Rain
9:47 AM 46.4 °F 39.8 °F 44.6 °F 93% 30.07 in 8.0 mi NNE 16.1 mph - 0.06 in Rain Light Rain
9:53 AM 46.9 °F - 44.1 °F 90% 29.93 in 10.0 mi North 18.4 mph 24.2 mph 0.06 in Rain Light Rain
10:06 AM 46.4 °F 39.2 °F 42.8 °F 87% 30.07 in 10.0 mi North 18.4 mph - 0.00 in   Overcast
10:16 AM 48.2 °F - 42.8 °F 82% 30.07 in 10.0 mi North 18.4 mph 24.2 mph 0.00 in   Overcast
10:28 AM 48.2 °F - 42.8 °F 82% 30.08 in 10.0 mi North 18.4 mph 21.9 mph 0.00 in   Overcast
10:53 AM 48.0 °F - 42.1 °F 80% 29.95 in 10.0 mi North 17.3 mph - 0.00 in   Overcast
11:12 AM 50.0 °F - 42.8 °F 76% 30.09 in 10.0 mi North 17.3 mph - N/A   Overcast
11:53 AM 50.0 °F - 41.0 °F 71% 29.99 in 10.0 mi North 12.7 mph - N/A   Overcast
12:53 PM 50.0 °F - 41.0 °F 71% 30.00 in 10.0 mi NNW 16.1 mph - N/A   Overcast
1:53 PM 52.0 °F - 41.0 °F 66% 30.02 in 10.0 mi North 10.4 mph - N/A   Overcast
2:39 PM 55.4 °F - 42.8 °F 63% 30.12 in 10.0 mi North 6.9 mph - N/A   Overcast
2:53 PM 55.0 °F - 39.9 °F 57% 30.02 in 10.0 mi North 5.8 mph - N/A   Mostly Cloudy
3:53 PM 55.0 °F - 39.0 °F 55% 30.02 in 10.0 mi North 4.6 mph - N/A   Mostly Cloudy
4:53 PM 55.0 °F - 39.9 °F 57% 30.03 in 10.0 mi WNW 6.9 mph - N/A   Overcast
5:53 PM 55.0 °F - 39.9 °F 57% 30.02 in 10.0 mi North 3.5 mph - N/A   Mostly Cloudy
6:53 PM 54.0 °F - 44.1 °F 69% 30.04 in 10.0 mi WSW 12.7 mph - N/A   Mostly Cloudy
7:53 PM 52.0 °F - 42.1 °F 69% 30.06 in 10.0 mi WSW 8.1 mph - N/A   Scattered Clouds
8:53 PM 50.0 °F - 42.1 °F 74% 30.08 in 10.0 mi WSW 9.2 mph - N/A   Scattered Clouds
9:53 PM 46.9 °F - 39.9 °F 77% 30.11 in 10.0 mi SW 6.9 mph - N/A   Partly Cloudy
10:53 PM 48.0 °F - 39.9 °F 74% 30.13 in 10.0 mi SW 9.2 mph - N/A   Clear
11:53 PM 46.0 °F 41.4 °F 39.0 °F 76% 30.13 in 10.0 mi SSW 9.2 mph - N/A   Clear